• In Hungary
  • List of Countries
  • For 7 days
  • Water Temperature
  • Satellite Maps
  • Weather Map
  • News
  • Weather Widgets
  • user-avatar
    Login

    Hourly Weather Przysow

    Today, 19 September, Wednesday

    Time Temperature Precipitation Wind Pressure Humidity
    00:00 +17°C° 0 mm 2 mps 741 mmHg 71%
    01:00 +17°C° 0 mm 2 mps 741 mmHg 71%
    02:00 +17°C° 0 mm 2 mps 741 mmHg 71%
    03:00 +16°C° 0 mm 2 mps 741 mmHg 70%
    04:00 +16°C° 0 mm 2 mps 741 mmHg 70%
    05:00 +17°C° 0 mm 2 mps 741 mmHg 68%
    06:00 +17°C° 0 mm 3 mps 741 mmHg 65%
    07:00 +18°C° 0 mm 3 mps 741 mmHg 63%
    08:00 +20°C° 0 mm 3 mps 741 mmHg 55%
    09:00 +22°C° 0 mm 3 mps 741 mmHg 48%
    10:00 +25°C° 0 mm 4 mps 742 mmHg 41%
    11:00 +26°C° 0 mm 3 mps 742 mmHg 39%
    12:00 +27°C° 0 mm 3 mps 742 mmHg 36%
    13:00 +28°C° 0 mm 3 mps 741 mmHg 34%
    14:00 +28°C° 0 mm 3 mps 741 mmHg 36%
    15:00 +28°C° 0 mm 2 mps 741 mmHg 38%
    16:00 +27°C° 0 mm 2 mps 741 mmHg 40%
    17:00 +25°C° 0 mm 2 mps 741 mmHg 44%
    18:00 +23°C° 0 mm 2 mps 741 mmHg 49%
    19:00 +21°C° 0 mm 1 mps 741 mmHg 53%
    20:00 +20°C° 0 mm 2 mps 741 mmHg 56%
    21:00 +19°C° 0 mm 2 mps 741 mmHg 58%
    22:00 +19°C° 0 mm 2 mps 742 mmHg 61%
    23:00 +18°C° 0 mm 2 mps 742 mmHg 63%

    Tomorrow, 20 September, Thursday

    Time Temperature Precipitation Wind Pressure Humidity
    00:00 +18°C° 0 mm 2 mps 742 mmHg 65%
    01:00 +17°C° 0 mm 2 mps 742 mmHg 68%
    02:00 +17°C° 0 mm 2 mps 742 mmHg 69%
    03:00 +17°C° 0 mm 2 mps 742 mmHg 70%
    04:00 +16°C° 0 mm 2 mps 741 mmHg 71%
    05:00 +17°C° 0 mm 2 mps 742 mmHg 69%
    06:00 +18°C° 0 mm 2 mps 742 mmHg 67%
    07:00 +18°C° 0 mm 2 mps 742 mmHg 65%
    08:00 +20°C° 0 mm 2 mps 742 mmHg 58%
    09:00 +24°C° 0 mm 2 mps 742 mmHg 52%
    10:00 +26°C° 0 mm 2 mps 742 mmHg 45%
    11:00 +27°C° 0 mm 2 mps 742 mmHg 42%
    12:00 +27°C° 0 mm 2 mps 742 mmHg 38%
    13:00 +28°C° 0 mm 2 mps 742 mmHg 35%
    14:00 +28°C° 0 mm 1 mps 741 mmHg 36%
    15:00 +28°C° 0 mm 1 mps 741 mmHg 37%
    16:00 +28°C° 0 mm 1 mps 741 mmHg 38%
    17:00 +26°C° 0 mm 1 mps 741 mmHg 42%
    18:00 +24°C° 0 mm 1 mps 741 mmHg 46%
    19:00 +22°C° 0 mm 1 mps 741 mmHg 50%
    20:00 +21°C° 0 mm 1 mps 741 mmHg 53%
    21:00 +19°C° 0 mm 2 mps 741 mmHg 55%
    22:00 +19°C° 0 mm 2 mps 741 mmHg 58%
    23:00 +18°C° 0 mm 2 mps 741 mmHg 60%

    Day after tomorrow, 21 September, Friday

    Time Temperature Precipitation Wind Pressure Humidity
    00:00 +18°C° 0 mm 2 mps 741 mmHg 63%
    01:00 +17°C° 0 mm 2 mps 740 mmHg 65%
    02:00 +17°C° 0 mm 2 mps 740 mmHg 66%
    03:00 +17°C° 0 mm 2 mps 740 mmHg 68%
    04:00 +16°C° 0 mm 2 mps 740 mmHg 69%
    05:00 +17°C° 0 mm 2 mps 740 mmHg 68%
    06:00 +17°C° 0 mm 2 mps 740 mmHg 67%
    07:00 +18°C° 0 mm 2 mps 740 mmHg 66%
    08:00 +20°C° 0 mm 2 mps 740 mmHg 59%
    09:00 +24°C° 0 mm 3 mps 739 mmHg 52%
    10:00 +26°C° 0 mm 3 mps 739 mmHg 45%
    11:00 +27°C° 0 mm 4 mps 739 mmHg 41%
    12:00 +28°C° 0 mm 4 mps 738 mmHg 37%
    13:00 +29°C° 0 mm 4 mps 738 mmHg 33%
    14:00 +29°C° 0 mm 4 mps 738 mmHg 35%
    15:00 +28°C° 0 mm 4 mps 737 mmHg 37%
    16:00 +28°C° 0 mm 3 mps 737 mmHg 39%
    17:00 +26°C° 0 mm 3 mps 737 mmHg 43%
    18:00 +23°C° 0 mm 4 mps 736 mmHg 47%
    19:00 +22°C° 0 mm 4 mps 736 mmHg 51%
    20:00 +21°C° 0 mm 4 mps 736 mmHg 52%
    21:00 +21°C° 0 mm 4 mps 736 mmHg 52%
    22:00 +20°C° 0 mm 4 mps 736 mmHg 53%
    23:00 +20°C° 0 mm 4 mps 736 mmHg 53%

    22 September, Saturday

    Time Temperature Precipitation Wind Pressure Humidity
    00:00 +20°C° 0 mm 4 mps 736 mmHg 53%
    01:00 +20°C° 0 mm 4 mps 737 mmHg 53%
    02:00 +17°C° 0 mm 5 mps 737 mmHg 59%
    03:00 +16°C° 0 mm 5 mps 738 mmHg 65%
    04:00 +15°C° 0 mm 6 mps 738 mmHg 71%
    05:00 +14°C° 0.5 mm 5 mps 739 mmHg 73%
    06:00 +13°C° 0.5 mm 5 mps 740 mmHg 75%
    07:00 +10°C° 0.5 mm 5 mps 741 mmHg 77%
    08:00 +11°C° 0.7 mm 4 mps 741 mmHg 78%
    09:00 +11°C° 0.7 mm 3 mps 741 mmHg 80%
    10:00 +10°C° 0.7 mm 2 mps 742 mmHg 81%
    11:00 +10°C° 1.3 mm 3 mps 742 mmHg 82%
    12:00 +10°C° 1.3 mm 3 mps 742 mmHg 83%
    13:00 +10°C° 1.3 mm 3 mps 742 mmHg 85%
    14:00 +10°C° 0.6 mm 3 mps 742 mmHg 84%
    15:00 +10°C° 0.6 mm 4 mps 742 mmHg 84%
    16:00 +10°C° 0.6 mm 4 mps 742 mmHg 83%
    17:00 +9°C° 0 mm 3 mps 742 mmHg 85%
    18:00 +9°C° 0 mm 3 mps 742 mmHg 87%
    19:00 +8°C° 0 mm 3 mps 742 mmHg 89%
    20:00 +8°C° 0 mm 3 mps 742 mmHg 88%
    21:00 +8°C° 0 mm 3 mps 742 mmHg 88%
    22:00 +8°C° 0 mm 3 mps 742 mmHg 87%
    23:00 +8°C° 0 mm 3 mps 742 mmHg 87%

    23 September, Sunday

    Time Temperature Precipitation Wind Pressure Humidity
    00:00 +8°C° 0 mm 3 mps 742 mmHg 87%
    01:00 +8°C° 0 mm 3 mps 742 mmHg 87%
    02:00 +8°C° 0 mm 3 mps 742 mmHg 87%
    03:00 +8°C° 0 mm 3 mps 743 mmHg 87%
    04:00 +7°C° 0 mm 3 mps 743 mmHg 87%
    05:00 +8°C° 0 mm 3 mps 743 mmHg 85%
    06:00 +8°C° 0 mm 3 mps 743 mmHg 82%
    07:00 +8°C° 0 mm 4 mps 743 mmHg 79%
    08:00 +11°C° 0 mm 4 mps 743 mmHg 71%
    09:00 +13°C° 0 mm 4 mps 743 mmHg 63%
    10:00 +14°C° 0 mm 4 mps 742 mmHg 54%
    11:00 +15°C° 0 mm 4 mps 742 mmHg 51%
    12:00 +17°C° 0 mm 4 mps 741 mmHg 47%
    13:00 +18°C° 0 mm 4 mps 741 mmHg 43%
    14:00 +18°C° 0 mm 4 mps 740 mmHg 44%
    15:00 +17°C° 0 mm 3 mps 740 mmHg 44%
    16:00 +17°C° 0 mm 3 mps 739 mmHg 45%
    17:00 +16°C° 0 mm 3 mps 738 mmHg 48%
    18:00 +14°C° 0 mm 3 mps 738 mmHg 51%
    19:00 +13°C° 0 mm 3 mps 737 mmHg 54%
    20:00 +12°C° 0 mm 4 mps 736 mmHg 55%
    21:00 +12°C° 0 mm 4 mps 734 mmHg 56%
    22:00 +12°C° 0 mm 5 mps 733 mmHg 57%
    23:00 +12°C° 0 mm 4 mps 732 mmHg 57%

    24 September, Monday

    Time Temperature Precipitation Wind Pressure Humidity
    00:00 +12°C° 0 mm 4 mps 731 mmHg 57%
    01:00 +12°C° 0 mm 3 mps 730 mmHg 57%
    02:00 +12°C° 0.6 mm 3 mps 729 mmHg 61%
    03:00 +12°C° 0.6 mm 3 mps 728 mmHg 65%
    04:00 +12°C° 0.6 mm 3 mps 727 mmHg 70%
    05:00 +12°C° 1.6 mm 4 mps 727 mmHg 74%
    06:00 +12°C° 1.6 mm 5 mps 726 mmHg 79%
    07:00 +11°C° 1.6 mm 7 mps 726 mmHg 84%
    08:00 +12°C° 0.1 mm 7 mps 726 mmHg 78%
    09:00 +12°C° 0.1 mm 8 mps 726 mmHg 73%
    10:00 +13°C° 0.1 mm 9 mps 725 mmHg 68%
    11:00 +13°C° 0.4 mm 9 mps 725 mmHg 70%
    12:00 +13°C° 0.4 mm 9 mps 725 mmHg 72%
    13:00 +13°C° 0.4 mm 10 mps 725 mmHg 75%
    14:00 +12°C° 0.3 mm 11 mps 726 mmHg 74%
    15:00 +11°C° 0.3 mm 11 mps 727 mmHg 74%
    16:00 +9°C° 0.3 mm 12 mps 727 mmHg 73%
    17:00 +9°C° 0.5 mm 12 mps 728 mmHg 74%
    18:00 +8°C° 0.5 mm 13 mps 729 mmHg 76%
    19:00 +8°C° 0.5 mm 13 mps 729 mmHg 77%
    20:00 +8°C° 0.2 mm 13 mps 730 mmHg 77%
    21:00 +8°C° 0.2 mm 13 mps 731 mmHg 76%
    22:00 +8°C° 0.2 mm 13 mps 732 mmHg 76%
    23:00 +8°C° 0.3 mm 13 mps 732 mmHg 76%
    Show more